Dauntless Aviation
Airports Europe Ireland
EINN
SNN

Shannon Airport

Shannon, IRELAND

Airport Info
Suggest Updated Information for this Airport

Location

Latitude / Longitude: 52°42'7"N / 8°55'29"W
  52°42.12'N / 8°55.488'W
  52.7020 / -8.9248

Nearby radio navigation aids

ENS ENNIS NDB. 186.3° 12.2nm from ENS to field.
FOY FOYNES NDB. 57.3° 12.8nm from FOY to field.
SHA SHANNON VOR/DME. 238.5° 1.8nm from SHA to field.

Runway Information

Runway 06 /24

Dimensions: 10496 x 148 ft.
Surface: ASP
 
Runway 06
Runway 24
Latitude: 52.693172 52.710008
Longitude: -8.943519 -8.907742
Elevation: 46 ft. 46 ft.
Runway true heading: 48.7 228.7
 

Runway 13 /31

Dimensions: 5643 x 148 ft.
Surface: ASP
 
Runway 13
Runway 31
Latitude: 52.702003 52.693119
Longitude: -8.925825 -8.905003
Elevation: 11 ft. 11 ft.
Runway true heading: 121.7 301.7
 

Instrument Procedures

IAPs (Instrument Approach Procedures)

  Aerodrome Information (Textual)
Satellite photo at:
Airport distance calculator
From:
Weather Reports

METAR

EINN

EINN 290730Z 21018KT 6000 -SHSN FEW010 SCT018CB BKN060 02/00 Q0977 TEMPO 4000 SHRASN BKN010
EIKY
37.9nm S
EIKY 290730Z 23014G24KT 9999 VCSH SCT026CB 02/M02 Q0978

TAF

EINN
TAF AMD EINN 290615Z 2906/0106 19015KT 9999 FEW014 BKN030 BECMG 2906/2907 22016G26KT TEMPO 2906/2908 4000 SHRASNGS BKN010 SCT018CB PROB40 2906/2907 1800 SHSN BKN005 BECMG 2907/2909 23023G36KT TEMPO 2908/2911 4000 SHRASN BKN010 BKN018CB BECMG 2909/2911 26035G50KT TEMPO 2911/2915 27040G60KT 4000 SHRAGS SCT010 BKN018CB TEMPO 2915/2917 -SHRA SCT012 SCT018CB BECMG 2917/2919 27027G40KT TEMPO 2921/0106 7000 -SHRASN SCT010 SCT018CB BECMG 0100/0102 25020G30KT BECMG 0104/0106 25015KT
EIKY
37.9nm S
TAF EIKY 290500Z 2906/2915 22018G29KT 9999 FEW014 BKN028 TEMPO 2906/2908 3000 -SHSN BKN010 SCT018CB PROB30 TEMPO 2906/2907 1500 BKN005 BECMG 2908/2910 24030G40KT TEMPO 2908/2915 4000 -SHRAGS SCT012 BKN018CB BECMG 2910/2912 26032G52KT
Safelog

 

Dauntless Aviation

© 2007-2020 Dauntless Aviation, all rights reserved
Information provided via PilotNav comes from a variety of official and unofficial data sources. As errors are possible, do not use PilotNav for primary flight planning purposes. Verify any information that you receive via PilotNav with current and canonical charts and other official documents. The material in this database is subject to database copyrights held by Dauntless Aviation and may not be copied without the express permission of Dauntless Aviation - licenses for use of part of all of this data are available for purchase; enquire via the Dauntless Aviation helpdesk. A number of mechanisms and markers exist in the database to protect against and identify infringement / copyright. Automated queries against this website are stictly prohibited, and all activity is logged and analyzed.